This is the latest recevied weather packets stored in our database for station/object LRCK. If no packets are shown the sender has not sent any weather packets the latest 10 day(s).
| Time | Temp. | Humidity | Pressure | Rain* | Wind** | Luminosity | Snow |
|---|---|---|---|---|---|---|---|
| 1777241898 | 6.11° C | 57% | 1021 hPa | - | - | - | - |
| 1777240997 | 6.11° C | 57% | 1021 hPa | - | - | - | - |
| 1777240097 | 6.11° C | 61% | 1020 hPa | - | - | - | - |
| 1777239197 | 6.11° C | 61% | 1020 hPa | - | - | - | - |
| 1777238297 | 7.22° C | 57% | 1019 hPa | - | - | - | - |
| 1777237397 | 7.22° C | 57% | 1019 hPa | - | - | - | - |
| 1777236497 | 7.78° C | 57% | 1019 hPa | - | - | - | - |
| 1777235597 | 7.78° C | 57% | 1019 hPa | - | - | - | - |
| 1777234697 | 10° C | 50% | 1018 hPa | - | - | - | - |
| 1777233797 | 10° C | 50% | 1018 hPa | - | - | - | - |
| 1777232908 | 10° C | 47% | 1017 hPa | - | - | - | - |
| 1777231997 | 10° C | 47% | 1017 hPa | - | - | - | - |
| 1777231097 | 10° C | 47% | 1016 hPa | - | - | - | - |
| 1777230197 | 10° C | 47% | 1016 hPa | - | - | - | - |
| 1777229297 | 10° C | 47% | 1016 hPa | - | - | - | - |
| 1777228398 | 10° C | 47% | 1016 hPa | - | - | - | - |
| 1777227514 | 11.11° C | 44% | 1015 hPa | - | - | - | - |
| 1777226597 | 11.11° C | 44% | 1015 hPa | - | - | - | - |
| 1777225697 | 12.22° C | 47% | 1014 hPa | - | - | - | - |
| 1777224797 | 12.22° C | 47% | 1014 hPa | - | - | - | - |
| 1777223898 | 12.78° C | 44% | 1013 hPa | - | - | - | - |
| 1777222997 | 12.78° C | 44% | 1013 hPa | - | - | - | - |
| 1777222094 | 13.89° C | 48% | 1012 hPa | - | - | - | - |
| 1777221194 | 13.89° C | 48% | 1012 hPa | - | - | - | - |
| 1777220297 | 15° C | 45% | 1011 hPa | - | - | - | - |
* Rain since midnight (hover to see other rain measurements)
** Current wind speed in m/s (hover to see current wind gust speed)